Sheldon, IA

4:33 PM CDT on May 24, 2018 (GMT -0500)
Sheldon Municipal

Weather History for KSHL - January, 2014

Change the Weather History Date:

Tuesday, January 21, 2014

  Actual Average Record
Temperature  
Mean Temperature 1 °F -  
Max Temperature 15 °F 28 °F 51 °F (1964)
Min Temperature -13 °F 7 °F -29 °F (1970)
Degree Days  
Heating Degree Days 64    
Moisture  
Dew Point -10 °F    
Average Humidity 63    
Maximum Humidity 73    
Minimum Humidity 54    
Precipitation  
Precipitation 0.00 in - - ()
Sea Level Pressure  
Sea Level Pressure 30.22 in    
Wind  
Wind Speed 10 mph (SW)    
Max Wind Speed 18 mph    
Max Gust Speed 24 mph    
Visibility 10 miles    
Events Snow    
Averages and records for this station are not official NWS values.
T = Trace of Precipitation, MM = Missing Value Source: NWS Daily Summary

Daily Weather History Graph

Daily Weather History Graph

Search for Another Location

Airport or City:

Astronomy

Jan. 21, 2014 Rise Set
Actual Time 7:48 AM CST 5:21 PM CST
Civil Twilight 7:17 AM CST 5:52 PM CST
Nautical Twilight 6:42 AM CST 6:26 PM CST
Astronomical Twilight 6:08 AM CST 7:00 PM CST
Moon 11:05 PM CST (1/21) 10:09 AM CST (1/21)
Length of Visible Light 10h 34m
Length of Day
9h 32m
Waning Gibbous, 74% of the Moon is Illuminated
Jan 21
Waning Gibbous
Jan 23
Last Quarter
Jan 30
New
Feb 6
First Quarter
Feb 14
Full

Hourly Weather History & Observations

Time (CST) Temp. Windchill Dew Point Humidity Pressure Visibility Wind Dir Wind Speed Gust Speed Precip Events Conditions
12:15 AM -7.6 °F -24.6 °F -18.4 °F 59% 30.46 in 10.0 mi NNW 9.2 mph - N/A   Clear
12:35 AM -7.6 °F -28.3 °F -20.2 °F 54% 30.46 in 10.0 mi NNW 13.8 mph - N/A   Clear
12:55 AM -9.4 °F -28.9 °F -20.2 °F 59% 30.46 in 10.0 mi NNW 11.5 mph - N/A   Clear
1:15 AM -9.4 °F -29.8 °F -20.2 °F 59% 30.46 in 10.0 mi North 12.7 mph - N/A   Clear
1:35 AM -9.4 °F -29.8 °F -20.2 °F 59% 30.46 in 10.0 mi NNW 12.7 mph - N/A   Clear
1:55 AM -9.4 °F -26.8 °F -20.2 °F 59% 30.46 in 10.0 mi NNW 9.2 mph - N/A   Clear
2:15 AM -11.2 °F -29.0 °F -20.2 °F 64% 30.46 in 10.0 mi NNW 9.2 mph - N/A   Clear
2:35 AM -11.2 °F -29.0 °F -20.2 °F 64% 30.46 in 10.0 mi NNW 9.2 mph - N/A   Clear
2:55 AM -11.2 °F -27.8 °F -20.2 °F 64% 30.46 in 10.0 mi NW 8.1 mph - N/A   Clear
3:15 AM -11.2 °F -26.4 °F -20.2 °F 64% 30.46 in 10.0 mi NW 6.9 mph - N/A   Clear
3:35 AM -11.2 °F -30.1 °F -20.2 °F 64% 30.46 in 10.0 mi NNW 10.4 mph - N/A   Clear
3:55 AM -11.2 °F -24.8 °F -20.2 °F 64% 30.45 in 10.0 mi NW 5.8 mph - N/A   Clear
4:15 AM -11.2 °F -26.4 °F -22.0 °F 59% 30.45 in 10.0 mi NW 6.9 mph - N/A   Clear
4:35 AM -13.0 °F -28.6 °F -22.0 °F 64% 30.44 in 10.0 mi NW 6.9 mph - N/A   Clear
4:55 AM -13.0 °F -27.0 °F -22.0 °F 64% 30.43 in 10.0 mi WNW 5.8 mph - N/A   Clear
5:15 AM -13.0 °F -27.0 °F -22.0 °F 64% 30.43 in 10.0 mi NW 5.8 mph - N/A   Clear
5:35 AM -13.0 °F -28.6 °F -20.2 °F 70% 30.42 in 10.0 mi West 6.9 mph - N/A   Clear
5:55 AM -13.0 °F -27.0 °F -20.2 °F 70% 30.41 in 10.0 mi WSW 5.8 mph - N/A   Clear
6:15 AM -13.0 °F -28.6 °F -20.2 °F 70% 30.41 in 10.0 mi West 6.9 mph - N/A   Clear
6:35 AM -13.0 °F -25.1 °F -20.2 °F 70% 30.40 in 10.0 mi West 4.6 mph - N/A   Clear
6:55 AM -11.2 °F -20.6 °F -20.2 °F 64% 30.40 in 10.0 mi West 3.5 mph - N/A   Clear
7:15 AM -11.2 °F -24.8 °F -18.4 °F 70% 30.40 in 10.0 mi West 5.8 mph - N/A   Clear
7:35 AM -11.2 °F -24.8 °F -18.4 °F 70% 30.39 in 10.0 mi WSW 5.8 mph - N/A   Clear
7:55 AM -9.4 °F -20.9 °F -18.4 °F 65% 30.38 in 10.0 mi West 4.6 mph - N/A   Clear
8:15 AM -7.6 °F -22.1 °F -18.4 °F 59% 30.38 in 10.0 mi West 6.9 mph - N/A   Clear
8:35 AM -7.6 °F -22.1 °F -16.6 °F 65% 30.37 in 10.0 mi West 6.9 mph - N/A   Mostly Cloudy
8:55 AM -7.6 °F -20.6 °F -16.6 °F 65% 30.37 in 10.0 mi WSW 5.8 mph - N/A   Overcast
9:15 AM -5.8 °F -18.4 °F -16.6 °F 60% 30.36 in 10.0 mi WSW 5.8 mph - N/A   Overcast
9:35 AM -5.8 °F -16.7 °F -16.6 °F 60% 30.35 in 10.0 mi SSW 4.6 mph - N/A   Mostly Cloudy
9:55 AM -5.8 °F -16.7 °F -16.6 °F 60% 30.33 in 8.0 mi South 4.6 mph - N/A   Scattered Clouds
10:15 AM -4.0 °F -19.0 °F -14.8 °F 60% 30.33 in 10.0 mi South 8.1 mph - N/A   Scattered Clouds
10:35 AM -4.0 °F -17.8 °F -13.0 °F 65% 30.31 in 10.0 mi South 6.9 mph - N/A   Overcast
10:55 AM -2.2 °F -19.9 °F -13.0 °F 60% 30.29 in 10.0 mi South 11.5 mph - N/A   Mostly Cloudy
11:15 AM -2.2 °F -20.7 °F -13.0 °F 60% 30.28 in 10.0 mi South 12.7 mph - N/A   Mostly Cloudy
11:35 AM -0.4 °F -19.2 °F -11.2 °F 60% 30.25 in 10.0 mi South 13.8 mph - N/A   Mostly Cloudy
11:55 AM -0.4 °F -17.6 °F -11.2 °F 60% 30.24 in 10.0 mi South 11.5 mph - N/A   Mostly Cloudy
12:15 PM 1.4 °F -16.1 °F -9.4 °F 61% 30.22 in 10.0 mi South 12.7 mph - N/A   Overcast
12:35 PM 1.4 °F -16.9 °F -9.4 °F 61% 30.20 in 10.0 mi South 13.8 mph - N/A   Overcast
12:55 PM 1.4 °F -16.1 °F -9.4 °F 61% 30.17 in 10.0 mi South 12.7 mph 19.6 mph N/A   Overcast
1:15 PM 3.2 °F -14.6 °F -7.6 °F 61% 30.15 in 10.0 mi South 13.8 mph - N/A   Overcast
1:35 PM 3.2 °F -14.6 °F -7.6 °F 61% 30.12 in 10.0 mi South 13.8 mph - N/A   Overcast
1:55 PM 3.2 °F -14.6 °F -5.8 °F 66% 30.10 in 10.0 mi South 13.8 mph - N/A   Overcast
2:15 PM 3.2 °F -15.9 °F -7.6 °F 61% 30.09 in 10.0 mi South 16.1 mph 23.0 mph N/A   Mostly Cloudy
2:35 PM 5.0 °F -13.6 °F -5.8 °F 61% 30.06 in 10.0 mi SSE 16.1 mph - N/A   Mostly Cloudy
2:55 PM 5.0 °F -14.2 °F -5.8 °F 61% 30.05 in 10.0 mi SSE 17.3 mph - N/A   Mostly Cloudy
3:15 PM 5.0 °F -14.7 °F -4.0 °F 66% 30.03 in 10.0 mi SSE 18.4 mph - N/A   Mostly Cloudy
3:35 PM 6.8 °F -12.4 °F -4.0 °F 61% 30.02 in 10.0 mi SSE 18.4 mph - N/A   Mostly Cloudy
3:55 PM 6.8 °F -10.0 °F -2.2 °F 67% 30.03 in 1.5 mi SSE 13.8 mph 24.2 mph N/A Snow Light Snow
4:15 PM 6.8 °F -10.0 °F -0.4 °F 72% 30.05 in 10.0 mi South 13.8 mph - N/A   Overcast
4:35 PM 6.8 °F -10.0 °F -0.4 °F 72% 30.05 in 10.0 mi South 13.8 mph - N/A   Overcast
4:55 PM 8.6 °F -7.0 °F -0.4 °F 67% 30.04 in 10.0 mi South 12.7 mph - N/A   Overcast
5:15 PM 8.6 °F -7.7 °F -2.2 °F 62% 30.04 in 10.0 mi South 13.8 mph - N/A   Overcast
5:35 PM 8.6 °F -6.3 °F -2.2 °F 62% 30.04 in 10.0 mi South 11.5 mph 18.4 mph N/A   Overcast
5:55 PM 8.6 °F -7.0 °F -2.2 °F 62% 30.04 in 10.0 mi South 12.7 mph - N/A   Overcast
6:15 PM 8.6 °F -7.0 °F -2.2 °F 62% 30.04 in 10.0 mi South 12.7 mph - N/A   Overcast
6:35 PM 8.6 °F -6.3 °F -2.2 °F 62% 30.03 in 10.0 mi South 11.5 mph - N/A   Overcast
6:55 PM 10.4 °F -3.3 °F -2.2 °F 57% 30.02 in 10.0 mi South 10.4 mph - N/A   Overcast
7:15 PM 10.4 °F -4.1 °F -2.2 °F 57% 30.03 in 10.0 mi South 11.5 mph - N/A   Overcast
7:35 PM 10.4 °F -2.4 °F -2.2 °F 57% 30.02 in 10.0 mi South 9.2 mph - N/A   Overcast
7:55 PM 10.4 °F -1.5 °F -2.2 °F 57% 30.02 in 10.0 mi South 8.1 mph - N/A   Overcast
8:15 PM 10.4 °F -3.3 °F -2.2 °F 57% 30.01 in 10.0 mi South 10.4 mph - N/A   Overcast
8:35 PM 10.4 °F -2.4 °F -2.2 °F 57% 30.01 in 10.0 mi South 9.2 mph 15.0 mph N/A   Overcast
8:55 PM 12.2 °F -0.2 °F -0.4 °F 57% 30.00 in 10.0 mi South 9.2 mph - N/A   Overcast
9:15 PM 12.2 °F -0.2 °F -0.4 °F 57% 30.00 in 10.0 mi SSW 9.2 mph - N/A   Overcast
9:35 PM 12.2 °F 0.7 °F -0.4 °F 57% 29.99 in 10.0 mi SSW 8.1 mph - N/A   Overcast
9:55 PM 12.2 °F 0.7 °F 1.4 °F 62% 29.99 in 10.0 mi SW 8.1 mph - N/A   Overcast
10:15 PM 12.2 °F 0.7 °F 1.4 °F 62% 29.99 in 10.0 mi SW 8.1 mph - N/A   Overcast
10:35 PM 14.0 °F 3.9 °F 3.2 °F 62% 29.99 in 10.0 mi WSW 6.9 mph - N/A   Overcast
10:55 PM 14.0 °F 2.9 °F 5.0 °F 67% 29.99 in 10.0 mi West 8.1 mph - N/A   Overcast
11:15 PM 15.8 °F 3.4 °F 6.8 °F 68% 29.98 in 10.0 mi West 10.4 mph - N/A   Overcast
11:35 PM 15.8 °F 4.2 °F 8.6 °F 73% 29.98 in 10.0 mi WNW 9.2 mph - N/A   Overcast
11:55 PM 15.8 °F 3.4 °F 8.6 °F 73% 29.99 in 10.0 mi WNW 10.4 mph - N/A Snow Light Snow